DateTimeUTC,F1_A11,F1_S11,BsB_S11,BsG_S11,BsR_S11,BbsB_S11,BbsG_S11,BbsR_S11,BaB_A11,BaG_A11,BaR_A11,Tu_S11,T_S11,Uu_S11,U_S11,P_S11,T1_A11
2021-06-28T06:00:00Z,00000200,20000000,,,,,,,0000.11,0000.10,-000.33,18.2,25.3,02.0,01.3,0670.4,31.1
2021-06-28T06:01:00Z,00000200,20000000,,,,,,,0000.10,-000.16,0000.75,18.2,25.3,02.0,01.3,0670.4,31.1
2021-06-28T06:02:00Z,00000200,20000000,,,,,,,0000.59,0000.61,0000.01,18.1,25.3,02.0,01.3,0670.4,31.1
2021-06-28T06:03:00Z,00000200,60000000,,,,,,,0000.30,0000.20,0000.25,18.1,25.3,02.0,01.3,0670.4,31.1
2021-06-28T06:04:00Z,00000200,40000000,0000.15,0000.42,-000.07,0000.29,0000.24,-000.06,0000.08,0000.56,0000.40,18.4,25.1,02.5,01.7,0671.3,31.1
2021-06-28T06:05:00Z,00000200,00000000,0000.25,-000.08,0000.41,0000.36,0000.42,0000.21,0000.31,-000.10,-000.07,18.5,25.1,02.9,01.9,0671.4,31.1
2021-06-28T06:06:00Z,00000200,00000000,0000.40,0000.21,0000.21,-000.15,0000.36,0000.07,0000.07,0000.11,0000.21,18.6,25.1,02.9,01.9,0671.4,31.2
2021-06-28T06:07:00Z,00000200,00000000,0000.63,0000.55,-000.01,0000.39,0000.08,0000.07,0000.47,0000.12,-000.12,18.6,25.2,02.7,01.8,0671.4,31.2
2021-06-28T06:08:00Z,00000200,00000000,0000.14,0000.08,0000.32,0000.32,0000.29,0000.18,-000.11,-000.04,-000.12,18.6,25.2,02.8,01.9,0671.4,31.1
2021-06-28T06:09:00Z,00000200,00000000,0000.47,-000.14,0000.18,-000.47,0000.24,0000.20,-000.10,-000.24,-000.01,18.6,25.2,02.9,01.9,0671.4,31.1
2021-06-28T06:10:00Z,00000200,00000000,0000.51,0000.41,0000.23,0000.55,0000.18,0000.13,0000.06,0000.30,-000.14,18.6,25.1,02.9,02.0,0671.4,31.1
2021-06-28T06:11:00Z,00000200,00000000,0000.41,0000.13,-000.30,-000.10,0000.14,0000.21,-000.21,-000.35,0000.35,18.5,25.1,02.9,01.9,0671.4,31.1
2021-06-28T06:12:00Z,00000200,00000000,0000.52,0000.43,-000.01,0000.15,0000.46,0000.22,0000.28,0000.40,-000.01,18.5,25.1,03.1,02.1,0671.4,31.1
2021-06-28T06:13:00Z,00000200,00000000,0000.84,0000.40,-000.25,-000.06,0000.11,0000.26,0000.34,0000.18,-000.15,18.4,25.1,03.1,02.1,0671.4,31.1
2021-06-28T06:14:00Z,00000200,00000000,0001.01,0000.10,-000.13,-000.36,0000.10,0000.04,0000.03,-000.11,0000.28,18.4,25.0,03.3,02.2,0671.4,31.1
2021-06-28T06:15:00Z,00000200,00000000,0000.76,0000.22,0000.09,0000.16,0000.37,0000.26,0000.02,0000.08,0000.03,18.4,25.0,03.3,02.2,0671.4,31.1
2021-06-28T06:16:00Z,00000200,00000000,0000.49,0000.18,0000.25,0000.24,0000.15,-000.09,0000.16,0000.19,0000.08,18.3,25.0,03.3,02.2,0671.4,31.1
2021-06-28T06:17:00Z,00000200,00000000,-000.37,0000.30,0000.18,-000.10,0000.24,0000.23,0000.33,0000.24,-000.03,18.3,25.0,03.3,02.2,0671.4,31.1
2021-06-28T06:18:00Z,00000200,00000000,0000.48,-000.04,-000.21,0000.01,0000.19,0000.27,0000.22,0000.24,0000.56,18.3,25.0,03.5,02.3,0671.4,31.1
2021-06-28T06:19:00Z,00000200,00000000,0000.18,0000.16,0000.30,0000.12,0000.45,0000.11,0000.41,0000.59,0000.15,18.4,25.0,03.5,02.3,0671.4,31.1
2021-06-28T06:20:00Z,00000200,00000000,0000.62,0000.42,0000.06,0000.21,0000.17,0000.30,-000.05,-000.08,0000.18,18.5,25.0,03.6,02.4,0671.5,31.1
2021-06-28T06:21:00Z,00000200,00000000,0000.41,0000.24,0000.09,0000.41,0000.37,0000.16,0000.01,0000.16,0000.18,18.6,25.0,03.5,02.3,0671.5,31.1
2021-06-28T06:22:00Z,00000200,00000000,0000.52,0000.08,-000.16,0000.04,0000.10,0000.22,0000.20,0000.21,0000.04,18.7,25.1,03.4,02.3,0671.4,31.1
2021-06-28T06:23:00Z,00000200,00000000,0000.28,0000.04,0000.10,-000.04,0000.16,-000.01,0000.03,-000.08,-000.03,18.8,25.1,03.4,02.3,0671.4,31.1
2021-06-28T06:24:00Z,00000200,00000000,0000.42,0000.17,-000.01,0000.10,-000.04,0000.08,-000.17,-000.12,-000.43,18.8,25.2,03.5,02.3,0671.4,31.1
2021-06-28T06:25:00Z,00000200,00000000,0000.65,0000.24,0000.24,0000.22,0000.41,0000.35,-000.04,0000.22,0000.00,18.8,25.2,03.4,02.3,0671.4,31.1
2021-06-28T06:26:00Z,00000200,00000000,0000.70,-000.04,-000.03,0000.04,-000.03,0000.03,0000.22,-000.03,0000.34,18.7,25.2,03.6,02.4,0671.4,31.1
2021-06-28T06:27:00Z,00000200,00000000,0000.04,0000.41,0000.52,0000.27,0000.19,0000.40,0000.16,-000.17,0000.01,18.7,25.2,03.5,02.4,0671.3,31.1
2021-06-28T06:28:00Z,00000200,00000000,0000.49,0000.43,0000.27,-000.02,0000.06,0000.09,-000.02,0000.20,-000.09,18.6,25.1,03.5,02.4,0671.3,31.1
2021-06-28T06:29:00Z,00000200,00000000,-000.19,0000.54,0000.03,-000.23,0000.34,0000.32,0000.25,0000.06,0000.18,18.6,25.1,03.6,02.4,0671.3,31.1
2021-06-28T06:30:00Z,00000200,00000000,0001.01,0000.26,0000.11,0000.90,0000.27,-000.07,0000.12,0000.13,0000.05,18.5,25.1,03.7,02.5,0671.3,31.1
2021-06-28T06:31:00Z,00000200,00000000,0000.28,0000.07,-000.08,0000.50,0000.60,0000.14,0000.18,0000.38,0000.22,18.5,25.1,03.8,02.6,0671.3,31.1
2021-06-28T06:32:00Z,00000200,00000000,0000.53,0000.16,0000.19,-000.18,0000.18,0000.13,0000.33,0000.25,0000.15,18.5,25.0,03.9,02.6,0671.3,31.1
2021-06-28T06:33:00Z,00000200,00000000,0000.23,0000.24,0000.38,-000.06,0000.16,0000.20,0000.32,-000.33,0000.04,18.5,25.0,04.0,02.7,0671.3,31.1
2021-06-28T06:34:00Z,00000200,00000000,0000.52,0000.15,0000.51,-000.28,0000.09,0000.18,0000.12,0000.36,0000.43,18.6,25.1,04.0,02.7,0671.4,31.1
2021-06-28T06:35:00Z,00000200,00000000,0000.76,-000.14,-000.06,-000.25,0000.20,0000.16,0000.04,0000.53,0000.05,18.7,25.1,04.1,02.8,0671.4,31.1
2021-06-28T06:36:00Z,00000200,00000000,0000.43,0000.41,0000.31,-000.94,0000.36,-000.05,0000.44,0000.16,0000.37,18.8,25.1,04.1,02.8,0671.4,31.1
2021-06-28T06:37:00Z,00000200,00000000,0000.49,0000.26,0000.11,-000.45,0000.28,0000.02,-000.10,-000.20,-000.49,18.9,25.2,04.0,02.7,0671.4,31.2
2021-06-28T06:38:00Z,00000200,00000000,-000.20,-000.15,0000.25,0000.50,0000.18,0000.09,-000.15,0000.21,0000.38,18.9,25.2,04.1,02.8,0671.4,31.2
2021-06-28T06:39:00Z,00000200,00000000,0000.46,0000.56,0000.33,0000.31,0000.27,0000.02,0000.34,-000.23,-000.38,18.9,25.2,04.2,02.8,0671.4,31.2
2021-06-28T06:40:00Z,00000200,00000000,0000.06,0000.28,0000.27,0000.20,0000.46,0000.16,-000.08,0000.25,0000.25,18.9,25.2,04.2,02.9,0671.4,31.1
2021-06-28T06:41:00Z,00000200,00000000,0001.35,0000.18,-000.25,-000.31,0000.30,0000.01,0000.53,0000.12,0000.25,18.8,25.2,04.3,02.9,0671.4,31.1
2021-06-28T06:42:00Z,00000200,00000000,0000.56,0000.28,0000.15,-000.28,0000.36,0000.01,0000.13,0000.19,0000.42,18.8,25.2,04.3,02.9,0671.5,31.1
2021-06-28T06:43:00Z,00000200,00000000,0000.43,0000.22,-000.09,-000.59,-000.01,-000.16,-000.11,-000.08,-000.30,18.7,25.2,04.4,03.0,0671.4,31.1
2021-06-28T06:44:00Z,00000200,00000000,0000.36,0000.13,0000.25,-000.45,0000.22,0000.13,0000.08,0000.17,0000.04,18.7,25.1,04.5,03.0,0671.4,31.1
2021-06-28T06:45:00Z,00000200,00000000,-000.04,0000.38,0000.44,0000.35,0000.19,0000.42,-000.34,-000.27,0000.03,18.6,25.1,04.5,03.0,0671.4,31.1
2021-06-28T06:46:00Z,00000200,00000000,0000.90,0000.32,0000.35,0000.09,0000.33,0000.53,0000.75,0000.42,0000.14,18.6,25.1,04.5,03.0,0671.4,31.1
2021-06-28T06:47:00Z,00000200,00000000,0000.91,0000.25,-000.03,0000.13,-000.05,-000.09,0000.25,0000.10,0000.48,18.6,25.1,04.6,03.1,0671.4,31.1
2021-06-28T06:48:00Z,00000200,00000000,0000.88,0000.42,-000.02,0000.06,0000.20,0000.05,-000.23,0000.45,-000.17,18.6,25.1,04.6,03.1,0671.4,31.1
2021-06-28T06:49:00Z,00000200,00000000,0000.90,0000.34,0000.19,0000.29,0000.12,-000.05,0000.59,0000.33,0000.29,18.7,25.1,04.6,03.1,0671.4,31.1
2021-06-28T06:50:00Z,00000200,00000000,0000.63,0000.13,-000.33,0000.11,0000.27,0000.12,-000.01,-000.07,0000.08,18.8,25.1,04.7,03.2,0671.4,31.1
2021-06-28T06:51:00Z,00000200,00000000,0000.59,0000.09,-000.11,-000.10,0000.03,0000.29,-000.02,0000.12,0000.09,18.9,25.2,04.7,03.2,0671.4,31.1
2021-06-28T06:52:00Z,00000200,00000000,0000.60,0000.17,0000.16,0000.14,0000.68,-000.09,0000.33,0000.05,0000.04,18.9,25.2,04.6,03.2,0671.4,31.1
2021-06-28T06:53:00Z,00000200,00000000,0000.72,0000.25,0000.24,-000.06,0000.48,0000.79,0000.08,0000.11,0000.10,19.0,25.2,04.6,03.2,0671.4,31.1
2021-06-28T06:54:00Z,00000200,00000000,0001.28,0000.60,0000.01,0000.14,0000.36,0000.03,-000.42,-000.14,-000.20,19.0,25.3,04.7,03.2,0671.4,31.1
2021-06-28T06:55:00Z,00000200,00000000,0000.30,0000.26,0000.07,0000.10,0000.25,-000.12,0000.13,0000.22,-000.11,18.9,25.2,04.8,03.2,0671.4,31.1
2021-06-28T06:56:00Z,00000200,00000000,0000.93,0000.34,0000.37,-000.06,0000.56,0000.19,0000.18,-000.00,-000.07,18.8,25.2,04.8,03.2,0671.4,31.1
2021-06-28T06:57:00Z,00000200,40000000,,,,,,,-000.33,-000.47,0000.00,18.9,25.2,04.8,03.3,0671.4,31.1
2021-06-28T06:58:00Z,00000200,60000000,,,,,,,0000.28,0000.16,0000.02,18.5,25.3,04.5,03.0,0670.4,31.1
2021-06-28T06:59:00Z,00000200,20000000,,,,,,,0000.11,0000.29,0000.04,18.5,25.4,04.6,03.0,0670.3,31.1
